📊 Raw Sensor Data
Showing records 45726 to 45750 of 85,058 total
| ID | Distance (ft) | Battery V | Battery A | Int Temp (°F) | Int Humid (%) | Ext Temp (°F) | Solar V | RSSI | SNR | Time Stamp |
|---|---|---|---|---|---|---|---|---|---|---|
| 39345 | -- | 3.94 | -5 | 49 | 43 | 50 | 0.00 | -73 | 8 | 05/01/2025 03:15 AM |
| 39344 | -- | 3.94 | -5 | 50 | 42 | 51 | 0.00 | -73 | 8 | 05/01/2025 03:00 AM |
| 39343 | -- | 3.94 | -5 | 50 | 42 | 51 | 0.00 | -74 | 8 | 05/01/2025 02:45 AM |
| 39342 | -- | 3.94 | -5 | 51 | 42 | 51 | 0.00 | -74 | 7 | 05/01/2025 02:30 AM |
| 39341 | -- | 4.00 | -5 | 51 | 43 | 52 | 0.00 | -73 | 8 | 05/01/2025 02:15 AM |
| 39340 | -- | 3.95 | -5 | 52 | 42 | 54 | 0.00 | -73 | 9 | 05/01/2025 02:00 AM |
| 39339 | -- | 3.95 | -5 | 52 | 43 | 54 | 0.00 | -73 | 8 | 05/01/2025 01:46 AM |
| 39338 | 15.5 | 3.95 | -5 | 53 | 43 | 54 | 0.00 | -73 | 7 | 05/01/2025 01:30 AM |
| 39337 | 15.4 | 3.95 | -5 | 53 | 43 | 54 | 0.00 | -74 | 9 | 05/01/2025 01:15 AM |
| 39336 | -- | 4.01 | -5 | 54 | 43 | 55 | 0.00 | -74 | 7 | 05/01/2025 01:00 AM |
| 39335 | 15.4 | 4.01 | -5 | 54 | 44 | 55 | 0.00 | -71 | 8 | 05/01/2025 12:45 AM |
| 39334 | 15.4 | 3.95 | -5 | 55 | 44 | 55 | 0.00 | -71 | 8 | 05/01/2025 12:30 AM |
| 39333 | 15.4 | 3.95 | -5 | 55 | 44 | 56 | 0.00 | -70 | 9 | 05/01/2025 12:15 AM |
| 39332 | 15.4 | 3.95 | -5 | 56 | 44 | 57 | 0.10 | -71 | 8 | 05/01/2025 12:00 AM |
| 39331 | -- | 3.95 | -5 | 57 | 44 | 58 | 0.00 | -69 | 8 | 04/30/2025 11:45 PM |
| 39330 | -- | 3.95 | -5 | 58 | 44 | 59 | 0.00 | -72 | 8 | 04/30/2025 11:30 PM |
| 39329 | -- | 3.95 | -5 | 59 | 44 | 59 | 0.00 | -71 | 8 | 04/30/2025 11:15 PM |
| 39328 | -- | 3.95 | -5 | 59 | 44 | 60 | 0.00 | -70 | 8 | 04/30/2025 11:00 PM |
| 39327 | -- | 3.96 | -5 | 60 | 45 | 61 | 0.00 | -71 | 9 | 04/30/2025 10:45 PM |
| 39326 | -- | 3.96 | -5 | 61 | 45 | 61 | 0.00 | -71 | 7 | 04/30/2025 10:30 PM |
| 39325 | -- | 3.96 | -5 | 61 | 45 | 62 | 0.00 | -69 | 8 | 04/30/2025 10:15 PM |
| 39324 | -- | 3.96 | -5 | 62 | 45 | 62 | 0.00 | -71 | 8 | 04/30/2025 10:00 PM |
| 39323 | -- | 3.96 | -5 | 63 | 46 | 63 | 0.00 | -70 | 8 | 04/30/2025 09:46 PM |
| 39322 | -- | 4.02 | -5 | 64 | 46 | 64 | 0.00 | -72 | 7 | 04/30/2025 09:30 PM |
| 39321 | -- | 4.02 | -5 | 65 | 46 | 65 | 0.00 | -70 | 8 | 04/30/2025 09:15 PM |